FW4684 Weather Reports


Display with metric or nautical units.
time (UTC)temp
F
wind
direction
speed
MPH
gust
MPH
rain 1hr
in
rain 24hr
in
rain mn
in
humidity
%
barometer
mb
20260906035558 70 56 0.0 0.0 0.00 0.01 0.00 41 1013.2
20260906035057 70 56 0.0 0.0 0.00 0.01 0.00 41 1013.5
20260906034557 70 25 0.0 0.0 0.00 0.01 0.00 41 1013.6
20260906034059 70 25 0.0 0.0 0.00 0.01 0.00 40 1013.7
20260906033555 70 25 0.0 0.0 0.00 0.01 0.00 40 1013.7
20260906033053 71 25 0.0 0.0 0.00 0.01 0.00 41 1013.7
20260906032553 71 25 0.0 0.0 0.00 0.01 0.00 41 1013.8
20260906032052 71 25 0.0 0.0 0.00 0.01 0.00 41 1013.9
20260906031554 71 25 0.0 0.0 0.00 0.01 0.00 41 1013.9
20260906031051 71 25 0.0 0.0 0.00 0.01 0.00 40 1013.7
20260906030650 71 25 0.0 0.0 0.00 0.01 0.00 41 1013.6
20260906030056 71 25 0.0 0.0 0.00 0.01 0.00 41 1013.7
20260906025547 71 58 0.0 0.0 0.00 0.01 0.00 41 1013.6
20260906025047 71 131 0.0 2.0 0.00 0.01 0.00 40 1013.5
20260906024544 71 131 0.0 2.0 0.00 0.01 0.00 40 1013.5
20260906024045 71 49 0.0 1.0 0.00 0.01 0.00 40 1013.4
20260906023544 71 291 0.0 0.0 0.00 0.01 0.00 39 1013.4
20260906023042 71 291 0.0 0.0 0.00 0.01 0.00 40 1013.2
20260906022541 71 291 0.0 0.0 0.00 0.01 0.00 39 1013.2
20260906022042 71 291 0.0 0.0 0.00 0.01 0.00 39 1013.2
20260906021545 71 291 0.0 0.0 0.00 0.01 0.00 38 1013.1
20260906021038 72 291 0.0 0.0 0.00 0.01 0.00 38 1013.1
20260906020638 72 251 0.0 0.0 0.00 0.01 0.00 38 1013.0
20260906020038 72 251 0.0 0.0 0.00 0.01 0.00 38 1013.2
20260906015536 72 251 0.0 0.0 0.00 0.01 0.00 38 1013.1
20260906015036 72 251 0.0 0.0 0.00 0.01 0.00 38 1012.9
20260906014536 72 251 0.0 1.0 0.00 0.01 0.00 39 1012.9
20260906014034 72 251 0.0 1.0 0.00 0.01 0.00 38 1012.9
20260906013533 72 245 0.0 0.0 0.00 0.01 0.00 39 1012.8
20260906013032 72 245 0.0 0.0 0.00 0.01 0.00 39 1012.9
20260906012532 72 245 0.0 1.0 0.00 0.01 0.00 39 1012.7
20260906012029 72 245 0.0 1.0 0.00 0.01 0.00 39 1012.5
20260906011528 73 243 0.0 1.0 0.00 0.01 0.00 40 1012.4
20260906011029 73 243 0.0 1.0 0.00 0.01 0.00 41 1012.3
20260906010626 73 245 0.0 1.0 0.00 0.01 0.00 44 1012.2
20260906010025 73 245 0.0 0.0 0.00 0.01 0.00 44 1012.4
20260906005527 73 249 0.0 0.0 0.00 0.01 0.01 45 1012.4
20260906005024 73 252 0.0 0.0 0.00 0.01 0.01 48 1012.4
20260906004524 74 251 0.0 0.0 0.00 0.01 0.01 50 1012.2
20260906004022 74 251 0.0 0.0 0.00 0.01 0.01 51 1012.1
20260906003526 74 252 0.0 0.0 0.00 0.01 0.01 53 1012.0
20260906003021 74 252 0.0 0.0 0.00 0.01 0.01 55 1011.8
20260906002526 74 251 0.0 0.0 0.00 0.01 0.01 57 1011.8
20260906002021 74 251 0.0 0.0 0.00 0.01 0.01 61 1011.6
20260906001522 75 251 0.0 1.0 0.00 0.01 0.01 62 1011.5
20260906001020 75 251 0.0 1.0 0.00 0.01 0.01 62 1011.6
20260906000620 75 250 0.0 3.0 0.00 0.01 0.01 63 1011.5
20260906000019 75 236 0.0 0.0 0.00 0.01 0.01 64 1011.4
20260905235520 76 229 0.0 0.0 0.00 0.01 0.01 65 1011.5
20260905235020 76 229 0.0 1.0 0.00 0.01 0.01 67 1011.4
20260905234519 76 231 0.0 1.0 0.00 0.01 0.01 66 1011.3
20260905234019 77 248 0.0 1.0 0.00 0.01 0.01 66 1011.3
20260905233518 77 268 0.0 3.0 0.00 0.01 0.01 66 1011.2
20260905233025 78 232 1.0 3.0 0.00 0.01 0.01 66 1011.2
20260905232521 78 242 0.0 2.0 0.00 0.01 0.01 66 1011.2
20260905232019 79 252 0.0 3.0 0.00 0.01 0.01 65 1011.1
20260905231516 80 243 0.0 3.0 0.00 0.01 0.01 64 1011.0
20260905231015 80 226 0.0 3.0 0.00 0.01 0.01 64 1010.9
20260905230616 81 232 1.0 3.0 0.00 0.01 0.01 63 1010.9
20260905230015 81 245 0.0 4.0 0.00 0.01 0.01 62 1010.8
20260905225513 82 249 1.0 4.0 0.00 0.01 0.01 61 1010.8
20260905225014 82 252 1.0 5.0 0.00 0.01 0.01 60 1010.8
20260905224513 82 215 2.0 5.0 0.00 0.01 0.01 59 1010.7
20260905224013 83 242 1.0 4.0 0.00 0.01 0.01 59 1010.8
20260905223515 83 246 2.0 5.0 0.00 0.01 0.01 58 1010.8
20260905223010 83 249 2.0 5.0 0.00 0.01 0.01 56 1010.9
20260905222511 84 257 0.0 3.0 0.00 0.01 0.01 56 1010.9
20260905222011 85 270 1.0 3.0 0.00 0.01 0.01 54 1011.0
20260905221509 86 259 1.0 3.0 0.00 0.01 0.01 50 1011.0
20260905221007 87 233 0.0 2.0 0.00 0.01 0.01 52 1011.0
20260905220608 86 252 0.0 3.0 0.00 0.01 0.01 51 1010.9
20260905220006 86 244 0.0 3.0 0.00 0.01 0.01 51 1011.0
20260905215505 86 248 1.0 3.0 0.00 0.01 0.01 50 1011.0
20260905215005 87 271 0.0 1.0 0.00 0.01 0.01 49 1011.1
20260905214505 86 255 0.0 2.0 0.00 0.01 0.01 50 1011.0
20260905214006 86 255 0.0 2.0 0.00 0.01 0.01 52 1011.0
20260905213503 86 250 0.0 3.0 0.00 0.01 0.01 52 1011.2
20260905213003 85 266 0.0 3.0 0.00 0.01 0.01 53 1011.1
20260905212501 85 224 0.0 3.0 0.00 0.01 0.01 53 1011.0
20260905212000 86 173 0.0 3.0 0.00 0.01 0.01 52 1011.3
20260905211602 85 261 0.0 2.0 0.00 0.01 0.01 52 1011.3
20260905211059 84 238 0.0 2.0 0.00 0.01 0.01 51 1011.4
20260905210559 84 244 0.0 3.0 0.00 0.01 0.01 49 1011.5
20260905210100 84 236 0.0 3.0 0.00 0.01 0.01 50 1011.5
20260905205559 83 143 0.0 3.0 0.00 0.02 0.01 51 1011.6
20260905205100 83 32 0.0 3.0 0.00 0.02 0.01 54 1011.5
20260905204557 82 141 0.0 1.0 0.00 0.02 0.01 53 1011.7
20260905204056 81 211 0.0 1.0 0.00 0.02 0.01 55 1011.8
20260905203557 81 297 0.0 1.0 0.00 0.02 0.01 56 1011.8
20260905203055 81 265 0.0 0.0 0.00 0.02 0.01 59 1012.0
20260905202555 80 265 0.0 0.0 0.00 0.02 0.01 58 1012.0
20260905202053 80 265 0.0 0.0 0.00 0.02 0.01 58 1012.1
20260905201551 79 265 0.0 4.0 0.00 0.02 0.01 59 1012.2
20260905201051 78 205 0.0 5.0 0.00 0.02 0.01 59 1012.2
20260905200550 78 272 1.0 5.0 0.00 0.02 0.01 60 1012.3
20260905200054 78 240 1.0 6.0 0.00 0.02 0.01 61 1012.4
20260905195548 78 223 2.0 6.0 0.00 0.02 0.01 61 1012.4
20260905195048 78 255 2.0 5.0 0.00 0.02 0.01 63 1012.4
20260905194555 78 245 2.0 6.0 0.00 0.02 0.01 63 1012.3
20260905194048 78 242 0.0 6.0 0.00 0.02 0.01 63 1012.3
20260905193547 78 238 2.0 4.0 0.00 0.02 0.01 63 1012.4
20260905193046 78 247 2.0 4.0 0.00 0.02 0.01 62 1012.6
20260905192546 78 231 1.0 6.0 0.00 0.02 0.01 62 1012.6
20260905192045 78 214 3.0 6.0 0.00 0.02 0.01 60 1012.6
20260905191547 79 334 3.0 9.0 0.00 0.02 0.01 54 1012.7
20260905191045 79 21 1.0 9.0 0.00 0.02 0.01 54 1012.5
20260905190544 78 315 0.0 7.0 0.00 0.02 0.01 56 1012.7
20260905190044 78 323 1.0 7.0 0.01 0.02 0.01 56 1012.6
20260905185547 77 250 2.0 7.0 0.01 0.02 0.01 58 1012.8
20260905185043 77 96 0.0 4.0 0.01 0.02 0.01 61 1012.6
20260905184558 77 65 1.0 4.0 0.01 0.02 0.01 60 1012.6
20260905184042 78 314 0.0 1.0 0.01 0.02 0.01 61 1012.8
20260905183544 77 314 0.0 5.0 0.01 0.02 0.01 59 1012.5
20260905183042 77 270 1.0 4.0 0.01 0.02 0.01 60 1012.8
20260905182543 76 298 0.0 4.0 0.01 0.02 0.01 64 1012.8
20260905182043 76 63 0.0 7.0 0.01 0.02 0.01 62 1012.3
20260905181538 76 82 3.0 7.0 0.01 0.02 0.01 62 1012.3
20260905181041 76 46 3.0 9.0 0.01 0.02 0.01 64 1012.3
20260905180538 79 46 5.0 14.0 0.01 0.02 0.01 59 1012.5
20260905180035 79 50 5.0 14.0 0.01 0.02 0.01 60 1012.5
20260905175533 80 326 5.0 28.0 0.00 0.01 0.00 55 1012.8
20260905175033 82 22 6.0 28.0 0.00 0.01 0.00 52 1014.0
20260905174537 86 229 8.0 22.0 0.00 0.01 0.00 46 1014.2
20260905174033 88 275 2.0 7.0 0.00 0.01 0.00 48 1014.2
20260905173530 88 45 3.0 10.0 0.00 0.01 0.00 46 1013.5
20260905173030 89 42 3.0 15.0 0.00 0.01 0.00 44 1013.3
20260905172530 90 39 6.0 16.0 0.00 0.01 0.00 42 1013.4
20260905172032 91 32 4.0 10.0 0.00 0.01 0.00 41 1013.4
20260905171528 92 44 5.0 10.0 0.00 0.01 0.00 40 1013.4
20260905171027 93 48 3.0 7.0 0.00 0.01 0.00 41 1013.3
20260905170527 94 321 2.0 8.0 0.00 0.01 0.00 40 1013.2
20260905170026 94 254 2.0 8.0 0.00 0.01 0.00 41 1013.3
20260905165524 93 271 1.0 8.0 0.00 0.01 0.00 43 1013.3
20260905165024 92 164 2.0 11.0 0.00 0.01 0.00 43 1013.4
20260905164523 92 353 3.0 10.0 0.00 0.01 0.00 42 1013.4
20260905164022 93 35 3.0 9.0 0.00 0.01 0.00 40 1013.5
20260905163521 93 319 4.0 9.0 0.00 0.01 0.00 41 1013.5
20260905163021 93 359 2.0 9.0 0.00 0.01 0.00 42 1013.6
20260905162521 92 23 3.0 10.0 0.00 0.01 0.00 43 1013.7
20260905162019 93 288 2.0 8.0 0.00 0.01 0.00 41 1013.6
20260905161518 93 269 2.0 8.0 0.00 0.01 0.00 41 1013.8
20260905161018 92 15 2.0 8.0 0.00 0.01 0.00 43 1013.9
20260905160516 92 352 3.0 11.0 0.00 0.01 0.00 43 1014.0
20260905160027 92 314 3.0 11.0 0.00 0.01 0.00 43 1014.0
20260905155514 92 352 4.0 11.0 0.00 0.01 0.00 43 1014.1
20260905155012 91 36 4.0 12.0 0.00 0.01 0.00 46 1014.1
20260905154510 90 51 7.0 13.0 0.00 0.01 0.00 46 1014.1
20260905154011 90 51 9.0 13.0 0.00 0.01 0.00 47 1014.2
20260905153511 89 45 4.0 13.0 0.00 0.01 0.00 48 1014.1
20260905153011 88 67 6.0 13.0 0.00 0.01 0.00 48 1014.0
20260905152507 89 272 0.0 1.0 0.00 0.01 0.00 46 1013.8
20260905152010 89 286 0.0 2.0 0.00 0.01 0.00 47 1013.8
20260905151504 88 274 0.0 3.0 0.00 0.01 0.00 45 1013.7
20260905151003 87 72 1.0 7.0 0.00 0.01 0.00 46 1014.0
20260905150502 88 66 0.0 4.0 0.00 0.01 0.00 43 1013.9
20260905150003 88 57 0.0 4.0 0.00 0.01 0.00 43 1013.9
20260905145600 87 43 2.0 6.0 0.00 0.01 0.00 46 1013.9
20260905145100 87 65 4.0 6.0 0.00 0.01 0.00 45 1014.0
20260905144559 87 53 0.0 6.0 0.00 0.01 0.00 44 1014.0
20260905144058 87 6 1.0 5.0 0.00 0.01 0.00 46 1014.1
20260905143600 86 57 0.0 5.0 0.00 0.01 0.00 46 1014.2
20260905143057 86 331 0.0 2.0 0.00 0.01 0.00 46 1014.3
20260905142553 85 41 0.0 2.0 0.00 0.01 0.00 47 1014.3
20260905142051 85 96 0.0 1.0 0.00 0.01 0.00 48 1014.3
20260905141608 84 95 0.0 1.0 0.00 0.01 0.00 47 1014.2
20260905141047 84 235 0.0 1.0 0.00 0.01 0.00 48 1014.3
20260905140546 82 263 0.0 1.0 0.00 0.01 0.00 49 1014.3
20260905135545 82 64 0.0 1.0 0.00 0.01 0.00 50 1014.4
20260905135043 81 41 0.0 1.0 0.00 0.01 0.00 51 1014.2
20260905134554 80 72 0.0 4.0 0.00 0.01 0.00 51 1014.4
20260905134042 80 63 1.0 4.0 0.00 0.01 0.00 51 1014.4
20260905133538 79 233 0.0 1.0 0.00 0.01 0.00 51 1014.4
20260905133051 79 233 0.0 1.0 0.00 0.01 0.00 52 1014.5
20260905132536 78 233 0.0 1.0 0.00 0.01 0.00 53 1014.4
20260905132035 78 233 0.0 1.0 0.00 0.01 0.00 53 1014.5
20260905131549 77 233 0.0 2.0 0.00 0.01 0.00 53 1014.7
20260905131036 77 233 0.0 2.0 0.00 0.01 0.00 52 1014.8
20260905130532 76 151 0.0 2.0 0.00 0.01 0.00 52 1014.9
20260905125531 75 238 0.0 0.0 0.00 0.01 0.00 51 1015.0
20260905125030 75 179 0.0 0.0 0.00 0.01 0.00 49 1015.1
20260905124529 74 238 0.0 0.0 0.00 0.01 0.00 47 1015.1
20260905124027 74 238 0.0 0.0 0.00 0.01 0.00 47 1015.1
20260905123527 74 238 0.0 0.0 0.00 0.01 0.00 45 1015.1
20260905123028 73 238 0.0 0.0 0.00 0.01 0.00 45 1015.0
20260905122525 73 238 0.0 0.0 0.00 0.01 0.00 44 1015.0
20260905122026 72 238 0.0 0.0 0.00 0.01 0.00 39 1015.0
20260905121524 71 238 0.0 0.0 0.00 0.01 0.00 41 1014.9
20260905121027 71 238 0.0 0.0 0.00 0.01 0.00 42 1014.9
20260905120527 70 235 0.0 0.0 0.00 0.01 0.00 42 1014.9
20260905115523 70 235 0.0 0.0 0.00 0.01 0.00 42 1014.8
20260905115023 70 242 0.0 0.0 0.00 0.01 0.00 42 1014.7
20260905114522 69 246 0.0 1.0 0.00 0.01 0.00 43 1014.6
20260905114021 69 244 0.0 2.0 0.00 0.01 0.00 43 1014.7
20260905113520 69 309 0.0 2.0 0.00 0.01 0.00 42 1014.6
20260905113020 69 292 0.0 2.0 0.00 0.01 0.00 43 1014.6
20260905112518 69 256 0.0 0.0 0.00 0.01 0.00 43 1014.5
20260905112020 69 226 0.0 0.0 0.00 0.01 0.00 43 1014.3
20260905111517 69 233 0.0 0.0 0.00 0.01 0.00 42 1014.3
20260905111017 69 252 0.0 0.0 0.00 0.01 0.00 43 1014.2
20260905110515 69 236 0.0 0.0 0.00 0.01 0.00 42 1014.2
20260905105516 69 259 0.0 0.0 0.00 0.01 0.00 42 1014.1
20260905105013 69 256 0.0 0.0 0.00 0.01 0.00 43 1013.9
20260905104513 69 243 0.0 0.0 0.00 0.01 0.00 43 1013.9
20260905104012 69 250 0.0 0.0 0.00 0.01 0.00 42 1013.8
20260905103511 69 250 0.0 0.0 0.00 0.01 0.00 42 1013.9
20260905103017 69 259 0.0 0.0 0.00 0.01 0.00 42 1013.8
20260905102510 69 259 0.0 0.0 0.00 0.01 0.00 42 1013.8
20260905102008 69 260 0.0 0.0 0.00 0.01 0.00 42 1013.7
20260905101514 69 261 0.0 0.0 0.00 0.01 0.00 42 1013.8
20260905101006 69 264 0.0 0.0 0.00 0.01 0.00 42 1013.6
20260905100506 69 244 0.0 1.0 0.00 0.01 0.00 42 1013.7
20260905095504 69 242 0.0 2.0 0.00 0.01 0.00 43 1013.7
20260905095004 69 235 0.0 2.0 0.00 0.01 0.00 42 1013.7
20260905094503 69 238 0.0 0.0 0.00 0.01 0.00 42 1013.7
20260905094002 69 238 0.0 0.0 0.00 0.01 0.00 42 1013.7
20260905093502 69 236 0.0 0.0 0.00 0.01 0.00 42 1013.6
20260905093002 69 236 0.0 0.0 0.00 0.01 0.00 41 1013.6
20260905092501 70 236 0.0 0.0 0.00 0.01 0.00 41 1013.7
20260905092059 70 236 0.0 0.0 0.00 0.01 0.00 41 1013.7
20260905091615 70 236 0.0 0.0 0.00 0.01 0.00 41 1013.6
20260905091100 70 236 0.0 0.0 0.00 0.01 0.00 41 1013.6
20260905090557 70 236 0.0 0.0 0.00 0.01 0.00 42 1013.8
20260905085558 70 248 0.0 0.0 0.00 0.01 0.00 41 1013.9
20260905085058 70 248 0.0 0.0 0.00 0.01 0.00 41 1013.9
20260905084555 70 252 0.0 0.0 0.00 0.01 0.00 41 1013.9
20260905084055 70 208 0.0 0.0 0.00 0.01 0.00 41 1014.0
20260905083556 70 198 0.0 0.0 0.00 0.01 0.00 41 1014.0
20260905083052 70 182 0.0 0.0 0.00 0.01 0.00 41 1014.2
20260905082551 70 181 0.0 0.0 0.00 0.01 0.00 41 1014.2
20260905082051 70 181 0.0 0.0 0.00 0.01 0.00 41 1014.2
20260905081550 70 181 0.0 0.0 0.00 0.01 0.00 41 1014.2
20260905081049 70 181 0.0 0.0 0.00 0.01 0.00 41 1014.1
20260905080548 70 73 0.0 0.0 0.00 0.01 0.00 40 1014.3
20260905075547 71 73 0.0 0.0 0.00 0.01 0.00 40 1014.3
20260905075045 71 73 0.0 0.0 0.00 0.01 0.00 40 1014.5
20260905074555 71 73 0.0 0.0 0.00 0.01 0.00 40 1014.5
20260905074044 71 73 0.0 0.0 0.00 0.01 0.00 40 1014.5
20260905073543 71 73 0.0 0.0 0.00 0.01 0.00 40 1014.5
20260905073058 71 73 0.0 0.0 0.00 0.01 0.00 40 1014.6
20260905072542 71 73 0.0 0.0 0.00 0.01 0.00 39 1014.6
20260905072041 71 73 0.0 0.0 0.00 0.01 0.00 39 1014.6
20260905071540 71 73 0.0 0.0 0.00 0.01 0.00 39 1014.6
20260905071044 71 73 0.0 0.0 0.00 0.01 0.00 39 1014.6
20260905070538 71 73 0.0 0.0 0.00 0.01 0.00 39 1014.7
20260905065537 71 73 0.0 0.0 0.00 0.01 0.00 38 1014.7
20260905065041 71 73 0.0 0.0 0.00 0.01 0.00 38 1014.8
20260905064536 71 73 0.0 0.0 0.00 0.01 0.00 38 1014.8
20260905064035 71 73 0.0 0.0 0.00 0.01 0.00 38 1014.7
20260905063538 71 73 0.0 0.0 0.00 0.01 0.00 38 1014.8
20260905063033 71 73 0.0 0.0 0.00 0.01 0.00 37 1014.8
20260905062532 71 73 0.0 0.0 0.00 0.01 0.00 37 1014.9
20260905062034 72 73 0.0 0.0 0.00 0.01 0.00 37 1015.1
20260905061531 72 73 0.0 0.0 0.00 0.01 0.00 37 1015.0
20260905061029 72 73 0.0 0.0 0.00 0.01 0.00 37 1015.2
20260905060529 72 73 0.0 2.0 0.00 0.01 0.00 37 1015.3
20260905055529 72 79 0.0 2.0 0.00 0.01 0.00 37 1015.3
20260905055031 72 85 0.0 3.0 0.00 0.01 0.00 37 1015.5
20260905054528 72 65 1.0 3.0 0.00 0.01 0.00 37 1015.5
20260905054027 72 73 0.0 0.0 0.00 0.01 0.00 37 1015.5
20260905053526 72 73 0.0 0.0 0.00 0.01 0.00 37 1015.5
20260905053034 72 73 0.0 0.0 0.00 0.01 0.00 37 1015.5
20260905052524 72 73 0.0 0.0 0.00 0.01 0.00 38 1015.6
20260905052025 72 73 0.0 0.0 0.00 0.01 0.00 38 1015.6
20260905051524 72 73 0.0 0.0 0.00 0.01 0.00 38 1015.6
20260905051023 72 73 0.0 0.0 0.00 0.01 0.00 39 1015.6
20260905050525 73 73 0.0 1.0 0.00 0.01 0.00 40 1015.6
20260905045523 73 73 0.0 0.0 0.00 0.01 0.00 39 1015.6
20260905045019 73 72 0.0 0.0 0.00 0.01 0.00 39 1015.6
20260905044522 73 73 0.0 0.0 0.00 0.01 0.00 39 1015.5
20260905044017 73 73 0.0 1.0 0.00 0.01 0.00 39 1015.5
20260905043517 73 73 0.0 1.0 0.00 0.01 0.00 37 1015.6
20260905043017 73 73 0.0 3.0 0.00 0.01 0.00 38 1015.5
20260905042515 73 73 1.0 2.0 0.00 0.01 0.00 38 1015.5
20260905042014 73 61 0.0 0.0 0.00 0.01 0.00 37 1015.5
20260905041514 73 61 0.0 0.0 0.00 0.01 0.00 38 1015.6
20260905041013 73 61 0.0 0.0 0.00 0.01 0.00 38 1015.5
20260905040513 73 61 0.0 0.0 0.00 0.01 0.00 38 1015.4